"startDT [UTC]","vpos","CH4 [ppm]","stdev(CH4) [ppm]","CO2 [ppm]","stdev(CO2) [ppm]","H2O_reported [%]","stdev(H2O_reported)","CavityPressure [torr]","CavityTemp [C]","OutletValve","CH4_dry [ppm]","CO2_dry [ppm]","DasTemp [C]","EtalonTemp [C]","WarmBoxTemp [C]","MPVPosition","T_ECpre [C]","T_EC1 [C]","T_EC2 [C]","p_inlet [hPa]","p_in [hPa]","p_out [hPa]","T_inlet [C]","RH_inlet [%]","dwpt_inlet [C]","T_vent [C]","RH_vent [%]","dwpt_vent [C]","flow_vent [l min-1]","flow_inlet [l min-1]","dwpt_sample [C]","T_room [C]"
2015-06-05 00:00:00,0.0,1.93122,0.00062,401.655,0.033,0.7998,0.0028,140.001,45.000,34384.50575,1.94684,405.618,34.625,45.067,45.000,0.00,0.10,-272.72,-272.78,-8,987,-7,25.1,19.2,-0.0,24.7,19.8,0.1,5.73,1.93,-2.2,28.7
2015-06-05 00:01:00,0.0,1.93081,0.00181,401.648,0.060,0.7954,0.0014,139.997,45.000,34384.34668,1.94636,405.589,34.625,45.067,45.000,0.00,0.10,-272.72,-272.78,-8,987,-7,25.0,19.1,-0.1,24.7,19.7,0.0,5.73,1.92,-2.2,28.6
2015-06-05 00:02:00,0.0,1.92918,0.00163,401.613,0.053,0.7935,0.0028,139.999,45.000,34384.70679,1.94459,405.544,34.624,45.067,45.000,0.00,0.10,-272.72,-272.78,-8,987,-7,25.0,19.0,-0.2,24.7,19.7,0.0,5.73,1.92,-2.2,28.6
2015-06-05 00:03:00,0.0,1.93169,0.00120,401.665,0.047,0.7895,0.0018,140.000,45.000,34386.11824,1.94706,405.575,34.622,45.067,45.000,0.00,0.10,-272.71,-272.77,-8,987,-7,25.0,19.0,-0.2,24.7,19.6,-0.0,5.73,1.90,-2.2,28.7
2015-06-05 00:04:00,0.0,1.92918,0.00132,401.637,0.023,0.7910,0.0029,140.001,45.000,34385.30629,1.94460,405.553,34.622,45.068,45.000,0.00,0.10,-272.72,-272.78,-8,987,-7,25.1,19.0,-0.2,24.7,19.6,-0.1,5.73,1.91,-2.2,28.6
2015-06-05 00:05:00,0.0,1.93005,0.00084,401.587,0.045,0.8029,0.0043,139.999,45.000,34384.63228,1.94570,405.564,34.624,45.067,45.000,0.00,0.10,-272.72,-272.78,-8,987,-7,25.1,19.3,0.0,24.7,19.9,0.1,5.73,1.91,-2.2,28.6
2015-06-05 00:06:00,0.0,1.92840,0.00133,401.567,0.056,0.8005,0.0041,139.999,45.000,34383.55048,1.94409,405.533,34.627,45.067,45.000,0.00,0.10,-272.71,-272.77,-8,987,-7,25.1,19.2,-0.0,24.7,19.8,0.1,5.73,1.92,-2.2,28.7
2015-06-05 00:07:00,0.0,1.92696,0.00073,401.494,0.055,0.8056,0.0019,140.001,45.000,34386.78370,1.94263,405.482,34.624,45.067,45.000,0.00,0.10,-272.72,-272.78,-8,987,-7,25.1,19.4,0.1,24.8,19.9,0.2,5.73,1.93,-2.2,28.7
2015-06-05 00:08:00,0.0,1.92646,0.00073,401.522,0.033,0.8025,0.0039,140.003,45.000,34388.86873,1.94213,405.498,34.625,45.067,45.000,0.00,0.10,-272.72,-272.78,-8,986,-7,25.1,19.3,0.0,24.7,19.9,0.2,5.73,1.94,-2.2,28.6
2015-06-05 00:09:00,0.0,1.92774,0.00149,401.566,0.041,0.7994,0.0033,139.999,45.000,34387.21957,1.94312,405.523,34.627,45.067,45.000,0.00,0.10,-272.71,-272.77,-8,987,-7,25.1,19.2,-0.0,24.8,19.8,0.1,5.73,1.94,-2.2,28.6
2015-06-05 00:10:00,0.0,1.92930,0.00042,401.577,0.029,0.7976,0.0022,140.000,45.000,34387.65578,1.94485,405.529,34.626,45.067,45.000,0.00,0.10,-272.72,-272.78,-8,987,-7,25.1,19.1,-0.1,24.8,19.7,0.1,5.73,1.95,-2.2,28.7
2015-06-05 00:11:00,0.0,1.92999,0.00041,401.560,0.042,0.8069,0.0045,139.998,45.000,34387.23578,1.94565,405.556,34.660,45.067,45.000,0.00,0.10,-272.72,-272.78,-8,987,-7,25.1,19.4,0.1,24.8,19.9,0.2,5.73,1.95,-2.2,28.7
2015-06-05 00:12:00,0.0,1.93020,0.00109,401.585,0.046,0.8012,0.0028,139.998,45.000,34388.37638,1.94591,405.556,34.675,45.067,45.000,0.00,0.10,-272.72,-272.78,-8,987,-7,25.1,19.2,-0.0,24.8,19.9,0.2,5.73,1.95,-2.1,28.7
2015-06-05 00:13:00,0.0,1.92843,0.00092,401.591,0.039,0.7928,0.0037,140.000,45.000,34390.08901,1.94382,405.516,34.684,45.067,45.000,0.00,0.10,-272.71,-272.78,-8,987,-7,25.1,19.0,-0.2,24.8,19.6,0.0,5.73,1.95,-2.1,28.7
2015-06-05 00:14:00,0.0,1.92975,0.00053,401.580,0.045,0.7979,0.0059,139.999,45.000,34388.63330,1.94523,405.531,34.686,45.067,45.000,0.00,0.10,-272.72,-272.79,-8,987,-7,25.1,19.2,-0.0,24.8,19.7,0.0,5.73,1.94,-2.1,28.7
2015-06-05 00:15:00,0.0,1.92750,0.00215,401.566,0.036,0.8172,0.0052,139.999,45.000,34387.27383,1.94359,405.613,34.678,45.067,45.000,0.00,0.10,-272.72,-272.78,-8,987,-7,25.1,19.6,0.3,24.8,20.1,0.4,5.73,1.93,-2.1,28.7
2015-06-05 00:16:00,0.0,1.92565,0.00130,401.635,0.052,0.8018,0.0086,139.999,45.000,34387.96800,1.94115,405.612,34.683,45.067,45.000,0.00,0.10,-272.72,-272.77,-8,987,-7,25.1,19.2,0.0,24.8,20.0,0.3,5.73,1.92,-2.1,28.7
2015-06-05 00:17:00,0.0,1.92554,0.00046,401.590,0.043,0.7998,0.0019,139.995,45.000,34387.76310,1.94112,405.551,34.680,45.067,45.000,0.00,0.10,-272.72,-272.78,-8,987,-7,25.1,19.1,-0.0,24.8,19.8,0.1,5.73,1.92,-2.1,28.7
2015-06-05 00:18:00,0.0,1.92613,0.00037,401.645,0.070,0.7914,0.0022,140.000,45.000,34387.74074,1.94147,405.566,34.682,45.067,45.000,0.00,0.10,-272.72,-272.78,-8,987,-7,25.1,18.9,-0.2,24.8,19.6,0.0,5.73,1.91,-2.2,28.7
2015-06-05 00:19:00,0.0,1.92649,0.00041,401.567,0.035,0.7971,0.0035,139.999,45.000,34388.15792,1.94198,405.513,34.679,45.067,45.000,0.00,0.10,-272.71,-272.77,-8,987,-7,25.1,19.1,-0.1,24.8,19.6,0.1,5.73,1.91,-2.1,28.7
2015-06-05 00:20:00,0.0,1.92738,0.00043,401.590,0.034,0.7931,0.0037,139.997,45.000,34389.79780,1.94275,405.517,34.670,45.067,45.000,0.00,0.10,-272.71,-272.77,-8,987,-7,25.1,19.0,-0.1,24.8,19.6,0.0,5.73,1.91,-2.1,28.7
2015-06-05 00:21:00,0.0,1.92779,0.00039,401.568,0.043,0.8041,0.0024,140.000,45.000,34388.20870,1.94340,405.552,34.681,45.067,45.000,0.00,0.10,-272.72,-272.79,-8,986,-7,25.1,19.3,0.1,24.8,19.8,0.2,5.73,1.92,-2.1,28.7
2015-06-05 00:22:00,0.0,1.92823,0.00038,401.593,0.031,0.7977,0.0029,139.997,45.000,34386.29675,1.94375,405.543,34.660,45.067,45.000,0.00,0.10,-272.71,-272.78,-8,987,-7,25.1,19.1,-0.1,24.8,19.7,0.1,5.73,1.92,-2.1,28.8
2015-06-05 00:23:00,0.0,1.92852,0.00030,401.645,0.058,0.7970,0.0023,139.994,45.000,34386.65259,1.94404,405.591,34.641,45.067,45.000,0.00,0.10,-272.71,-272.77,-8,986,-7,25.1,19.0,-0.1,24.8,19.7,0.1,5.73,1.94,-2.1,28.8
2015-06-05 00:24:00,0.0,1.92871,0.00043,401.690,0.047,0.7951,0.0032,139.998,45.000,34387.92094,1.94416,405.629,34.625,45.068,45.000,0.00,0.10,-272.72,-272.78,-8,987,-7,25.1,19.0,-0.1,24.8,19.6,0.0,5.73,1.95,-2.1,28.7
2015-06-05 00:25:00,0.0,1.92940,0.00043,401.684,0.049,0.7970,0.0029,140.000,45.000,34388.00469,1.94494,405.634,34.625,45.068,45.001,0.00,0.10,-272.72,-272.78,-8,987,-7,25.1,19.1,-0.1,24.8,19.6,0.1,5.73,1.95,-2.1,28.7
2015-06-05 00:26:00,0.0,1.92891,0.00079,401.658,0.068,0.8044,0.0027,139.997,45.000,34388.23592,1.94450,405.643,34.624,45.068,45.000,0.00,0.10,-272.71,-272.78,-8,987,-7,25.1,19.3,0.1,24.8,19.8,0.2,5.73,1.95,-2.1,28.7
2015-06-05 00:27:00,0.0,1.92979,0.00073,401.639,0.047,0.8089,0.0026,140.000,45.000,34387.76432,1.94554,405.645,34.619,45.068,45.000,0.00,0.10,-272.72,-272.78,-8,987,-7,25.1,19.4,0.1,24.8,19.9,0.3,5.73,1.95,-2.1,28.8
2015-06-05 00:28:00,0.0,1.92992,0.00090,401.634,0.050,0.8143,0.0043,140.000,45.000,34387.24941,1.94584,405.672,34.612,45.068,45.000,0.00,0.10,-272.72,-272.78,-8,987,-7,25.1,19.5,0.2,24.8,20.1,0.4,5.73,1.95,-2.1,28.7
2015-06-05 00:29:00,0.0,1.92872,0.00059,401.639,0.042,0.8129,0.0026,139.995,45.000,34387.55432,1.94452,405.669,34.625,45.068,45.000,0.00,0.10,-272.72,-272.78,-8,987,-7,25.1,19.4,0.2,24.8,20.1,0.4,5.73,1.94,-2.1,28.7
2015-06-05 00:30:00,0.0,1.92949,0.00052,401.709,0.076,0.8045,0.0018,140.000,45.000,34389.30695,1.94516,405.692,34.646,45.067,45.000,0.00,0.10,-272.71,-272.77,-8,987,-7,25.1,19.2,0.0,24.8,19.9,0.2,5.73,1.93,-2.1,28.8
2015-06-05 00:31:00,0.0,1.92888,0.00070,401.684,0.064,0.8085,0.0025,139.999,45.000,34389.70128,1.94469,405.692,34.633,45.067,45.000,0.00,0.10,-272.72,-272.78,-8,987,-7,25.1,19.3,0.1,24.8,19.9,0.3,5.73,1.93,-2.1,28.8
2015-06-05 00:32:00,0.0,1.92988,0.00173,401.702,0.050,0.8116,0.0025,139.999,45.000,34391.62469,1.94550,405.727,34.647,45.067,45.000,0.00,0.10,-272.72,-272.78,-8,987,-7,25.1,19.4,0.2,24.8,20.0,0.4,5.73,1.91,-2.1,28.8
2015-06-05 00:33:00,0.0,1.92946,0.00153,401.608,0.048,0.8143,0.0041,140.001,45.000,34391.75302,1.94547,405.644,34.655,45.067,45.000,0.00,0.10,-272.71,-272.77,-8,987,-7,25.1,19.5,0.2,24.8,20.1,0.4,5.73,1.91,-2.1,28.9
2015-06-05 00:34:00,0.0,1.92732,0.00074,401.593,0.032,0.8081,0.0034,139.997,45.000,34392.67275,1.94307,405.598,34.666,45.067,45.000,0.00,0.10,-272.72,-272.78,-8,986,-7,25.1,19.3,0.1,24.8,19.9,0.3,5.73,1.91,-2.1,28.8
2015-06-05 00:35:00,0.0,1.92511,0.00195,401.557,0.047,0.8159,0.0047,139.999,45.000,34394.44251,1.94090,405.600,34.688,45.067,45.000,0.00,0.10,-272.72,-272.78,-8,988,-7,25.1,19.5,0.2,24.8,20.1,0.4,5.73,1.91,-2.1,28.8
2015-06-05 00:36:00,0.0,1.92968,0.00097,401.593,0.046,0.8133,0.0037,140.000,45.000,34392.44327,1.94554,405.624,34.687,45.067,45.000,0.00,0.10,-272.71,-272.77,-8,987,-7,25.1,19.5,0.2,24.8,20.1,0.4,5.73,1.92,-2.1,28.8
2015-06-05 00:37:00,0.0,1.92705,0.00078,401.566,0.044,0.8136,0.0052,140.002,45.000,34393.10623,1.94295,405.598,34.689,45.067,45.000,0.00,0.10,-272.72,-272.78,-8,988,-7,25.2,19.4,0.2,24.9,20.0,0.4,5.73,1.92,-2.1,28.7
2015-06-05 00:38:00,0.0,1.92707,0.00081,401.622,0.036,0.8125,0.0060,139.995,45.000,34392.36896,1.94283,405.646,34.688,45.067,45.000,0.00,0.10,-272.72,-272.78,-8,987,-7,25.2,19.4,0.2,24.9,20.0,0.3,5.73,1.94,-2.1,28.7
2015-06-05 00:39:00,0.0,1.92846,0.00235,401.573,0.029,0.8200,0.0035,140.000,45.000,34395.11554,1.94429,405.638,34.701,45.067,45.000,0.00,0.10,-272.71,-272.78,-8,987,-7,25.2,19.6,0.3,24.9,20.2,0.5,5.73,1.95,-2.1,28.8
2015-06-05 00:40:00,0.0,1.92975,0.00183,401.557,0.053,0.8188,0.0025,139.999,45.000,34394.67788,1.94582,405.616,34.698,45.067,45.000,0.00,0.10,-272.71,-272.78,-8,987,-7,25.2,19.6,0.3,24.9,20.2,0.5,5.73,1.95,-2.1,28.8
2015-06-05 00:41:00,0.0,1.92801,0.00048,401.550,0.055,0.8136,0.0030,139.998,45.000,34392.71394,1.94387,405.582,34.697,45.067,45.000,0.00,0.10,-272.72,-272.79,-8,987,-7,25.2,19.4,0.2,24.9,20.0,0.4,5.73,1.95,-2.1,28.8
2015-06-05 00:42:00,0.0,1.93216,0.00330,401.612,0.053,0.8133,0.0026,140.001,45.000,34395.10956,1.94772,405.641,34.689,45.067,45.000,0.00,0.10,-272.72,-272.78,-8,987,-7,25.2,19.4,0.2,24.9,20.0,0.4,5.73,1.95,-2.1,28.8
2015-06-05 00:43:00,0.0,1.93547,0.00121,401.664,0.039,0.8082,0.0022,140.000,45.000,34392.52454,1.95131,405.669,34.688,45.067,45.000,0.00,0.10,-272.72,-272.77,-8,987,-7,25.2,19.3,0.1,24.9,19.9,0.3,5.73,1.95,-2.1,28.8
2015-06-05 00:44:00,0.0,1.93589,0.00159,401.617,0.030,0.8122,0.0025,140.000,45.000,34392.93723,1.95172,405.642,34.688,45.067,45.000,0.00,0.10,-272.72,-272.78,-8,988,-7,25.2,19.4,0.2,24.9,20.0,0.3,5.73,1.94,-2.1,28.8
2015-06-05 00:45:00,0.0,1.92975,0.00232,401.577,0.074,0.8159,0.0057,140.000,45.000,34393.92815,1.94588,405.622,34.689,45.067,45.000,0.00,0.10,-272.72,-272.78,-8,987,-7,25.2,19.5,0.3,24.9,20.0,0.4,5.73,1.93,-2.1,28.8
2015-06-05 00:46:00,0.0,1.92916,0.00171,401.506,0.044,0.8298,0.0027,139.997,45.000,34391.11698,1.94515,405.617,34.698,45.067,45.000,0.00,0.10,-272.71,-272.77,-8,988,-7,25.2,19.8,0.5,24.9,20.4,0.6,5.73,1.92,-2.1,28.8
2015-06-05 00:47:00,0.0,1.93179,0.00155,401.577,0.047,0.8233,0.0030,139.998,45.000,34391.94742,1.94788,405.659,34.700,45.067,45.000,0.00,0.10,-272.71,-272.77,-8,987,-7,25.2,19.7,0.4,24.9,20.3,0.5,5.73,1.91,-2.1,28.9
2015-06-05 00:48:00,0.0,1.93070,0.00083,401.653,0.045,0.8177,0.0025,140.000,45.000,34392.30577,1.94670,405.707,34.697,45.067,45.000,0.00,0.10,-272.72,-272.78,-9,987,-7,25.2,19.5,0.3,24.9,20.1,0.5,5.73,1.90,-2.1,28.9
2015-06-05 00:49:00,0.0,1.93346,0.00134,401.718,0.041,0.8143,0.0045,140.000,45.000,34393.31548,1.94920,405.754,34.699,45.067,45.000,0.00,0.10,-272.71,-272.78,-8,987,-7,25.2,19.4,0.2,24.9,20.0,0.4,5.73,1.91,-2.1,28.9
2015-06-05 00:50:00,0.0,1.93414,0.00205,401.632,0.072,0.8243,0.0045,139.999,45.000,34394.56376,1.95039,405.720,34.711,45.067,45.000,0.00,0.10,-272.71,-272.78,-8,987,-7,25.2,19.7,0.4,24.9,20.2,0.6,5.73,1.92,-2.0,28.9
2015-06-05 00:51:00,0.0,1.93199,0.00088,401.609,0.055,0.8114,0.0079,139.999,45.000,34395.20443,1.94788,405.631,34.746,45.067,45.000,0.00,0.10,-272.72,-272.78,-8,987,-7,25.2,19.3,0.2,24.9,20.0,0.4,5.73,1.92,-2.0,28.9
2015-06-05 00:52:00,0.0,1.92937,0.00154,401.658,0.055,0.8086,0.0027,140.003,45.000,34397.39553,1.94507,405.665,34.749,45.067,45.000,0.00,0.10,-272.72,-272.78,-8,986,-7,25.2,19.2,0.1,24.9,19.8,0.3,5.73,1.94,-2.0,28.9
2015-06-05 00:53:00,0.0,1.92763,0.00350,401.716,0.116,0.8052,0.0026,140.000,45.000,34394.21660,1.94358,405.703,34.748,45.067,45.000,0.00,0.10,-272.71,-272.78,-8,988,-7,25.2,19.2,0.0,24.9,19.8,0.2,5.73,1.94,-2.0,28.9
2015-06-05 00:54:00,0.0,1.92609,0.00193,401.738,0.073,0.8091,0.0019,139.998,45.000,34393.41803,1.94166,405.752,34.750,45.067,45.000,0.00,0.10,-272.72,-272.78,-8,987,-7,25.2,19.3,0.1,24.9,19.8,0.3,5.73,1.96,-2.0,28.9
2015-06-05 00:55:00,0.0,1.92988,0.00142,401.613,0.037,0.8110,0.0030,139.996,45.000,34393.33658,1.94556,405.633,34.751,45.067,45.000,0.00,0.10,-272.72,-272.78,-8,987,-7,25.2,19.3,0.2,24.9,19.9,0.3,5.73,1.95,-2.0,28.9
2015-06-05 00:56:00,0.0,1.93014,0.00103,401.613,0.038,0.8043,0.0027,139.999,45.000,34395.01748,1.94587,405.598,34.754,45.067,45.000,0.00,0.10,-272.71,-272.77,-8,987,-7,25.2,19.2,0.0,24.9,19.8,0.2,5.73,1.95,-2.0,28.9
2015-06-05 00:57:00,0.0,1.92833,0.00175,401.608,0.037,0.8094,0.0021,140.000,45.000,34394.37451,1.94424,405.617,34.750,45.067,45.000,0.00,0.10,-272.71,-272.77,-8,987,-7,25.2,19.3,0.1,24.9,19.8,0.3,5.73,1.94,-2.0,28.8
2015-06-05 00:58:00,0.0,1.92805,0.00238,401.678,0.039,0.8081,0.0026,140.001,45.000,34397.50689,1.94366,405.682,34.750,45.067,45.000,0.00,0.10,-272.72,-272.78,-8,988,-7,25.2,19.2,0.1,24.9,19.9,0.3,5.73,1.93,-2.0,28.8
2015-06-05 00:59:00,0.0,1.93024,0.00077,401.654,0.031,0.8110,0.0044,139.997,45.000,34396.28593,1.94592,405.672,34.750,45.067,45.000,0.00,0.10,-272.72,-272.77,-8,987,-7,25.2,19.3,0.2,24.9,19.8,0.3,5.73,1.92,-2.0,28.8
2015-06-05 01:00:00,0.0,1.93147,0.00063,401.743,0.172,0.8131,0.0027,139.997,45.000,34397.75839,1.94740,405.771,34.757,45.067,45.000,0.00,0.10,-272.71,-272.78,-8,988,-7,25.2,19.4,0.2,24.9,20.0,0.4,5.73,1.91,-2.0,28.9
2015-06-05 01:01:00,0.0,1.93092,0.00148,401.750,0.047,0.8137,0.0031,139.997,45.000,34396.80617,1.94684,405.787,34.788,45.067,45.000,0.00,0.10,-272.72,-272.78,-8,987,-7,25.2,19.4,0.2,24.9,20.0,0.4,5.73,1.91,-2.0,28.9
2015-06-05 01:02:00,0.0,1.93203,0.00100,401.673,0.046,0.8177,0.0030,139.998,45.000,34396.66866,1.94783,405.727,34.804,45.067,45.000,0.00,0.10,-272.72,-272.78,-8,987,-7,25.2,19.4,0.3,24.9,20.0,0.4,5.73,1.90,-2.0,28.9
2015-06-05 01:03:00,0.0,1.93191,0.00133,401.712,0.040,0.8106,0.0023,139.999,45.000,34398.32288,1.94783,405.730,34.813,45.067,45.000,0.00,0.10,-272.71,-272.78,-8,987,-7,25.2,19.3,0.2,24.9,19.9,0.3,5.73,1.91,-2.0,28.9
2015-06-05 01:04:00,0.0,1.93230,0.00274,401.619,0.034,0.8212,0.0041,139.998,45.000,34399.30030,1.94820,405.690,34.812,45.067,45.000,0.00,0.10,-272.72,-272.78,-8,986,-7,25.3,19.5,0.3,24.9,20.1,0.5,5.73,1.93,-2.0,28.8
2015-06-05 01:05:00,0.0,1.93597,0.00133,401.690,0.040,0.8156,0.0039,139.998,45.000,34397.53356,1.95182,405.731,34.813,45.067,45.000,0.00,0.10,-272.72,-272.78,-8,987,-7,25.3,19.4,0.3,24.9,20.0,0.4,5.73,1.94,-2.0,28.8
2015-06-05 01:06:00,0.0,1.93635,0.00069,401.720,0.026,0.8241,0.0028,139.999,45.000,34398.34456,1.95242,405.804,34.813,45.067,45.000,0.00,0.10,-272.72,-272.78,-8,987,-7,25.3,19.6,0.4,24.9,20.2,0.5,5.73,1.95,-2.0,28.8
2015-06-05 01:07:00,0.0,1.93621,0.00041,401.755,0.052,0.8280,0.0030,139.997,45.000,34398.92843,1.95243,405.863,34.815,45.067,45.000,0.00,0.10,-272.72,-272.77,-9,987,-7,25.3,19.7,0.5,24.9,20.3,0.6,5.73,1.95,-2.0,28.8
2015-06-05 01:08:00,0.0,1.93466,0.00132,401.885,0.093,0.8181,0.0033,140.000,45.000,34399.12458,1.95071,405.942,34.815,45.067,45.000,0.00,0.10,-272.72,-272.78,-8,987,-7,25.3,19.5,0.3,24.9,20.1,0.5,5.73,1.96,-2.0,28.9
2015-06-05 01:09:00,0.0,1.93205,0.00182,401.853,0.055,0.8194,0.0022,139.998,45.000,34397.08945,1.94799,405.919,34.825,45.067,45.000,0.00,0.10,-272.72,-272.78,-8,987,-7,25.3,19.5,0.3,24.9,20.1,0.5,5.73,1.95,-2.0,28.8
2015-06-05 01:10:00,0.0,1.93425,0.00133,401.883,0.057,0.8119,0.0045,140.000,45.000,34400.44000,1.95007,405.909,34.851,45.067,45.000,0.00,0.10,-272.71,-272.77,-8,988,-7,25.2,19.3,0.2,24.9,19.9,0.4,5.73,1.94,-2.0,28.8
2015-06-05 01:11:00,0.0,1.93643,0.00208,401.889,0.069,0.8081,0.0039,139.999,45.000,34401.12098,1.95231,405.895,34.851,45.067,45.000,0.00,0.10,-272.72,-272.78,-8,987,-7,25.3,19.2,0.1,24.9,19.7,0.2,5.73,1.92,-2.0,28.8
2015-06-05 01:12:00,0.0,1.93542,0.00173,401.854,0.043,0.8106,0.0029,139.999,45.000,34400.71871,1.95126,405.874,34.875,45.067,45.000,0.00,0.10,-272.72,-272.78,-8,987,-7,25.3,19.2,0.1,25.0,19.8,0.3,5.73,1.91,-2.0,28.9
2015-06-05 01:13:00,0.0,1.93627,0.00142,401.897,0.033,0.8111,0.0029,139.999,45.000,34403.01067,1.95200,405.920,34.875,45.067,45.000,0.00,0.10,-272.71,-272.78,-8,987,-7,25.3,19.3,0.2,25.0,19.8,0.3,5.73,1.90,-2.0,28.9
2015-06-05 01:14:00,0.0,1.93775,0.00189,401.873,0.059,0.8171,0.0031,140.000,45.000,34406.83026,1.95369,405.925,34.877,45.067,45.000,0.00,0.10,-272.71,-272.77,-8,987,-7,25.3,19.4,0.3,25.0,20.0,0.4,5.73,1.90,-2.0,28.9
2015-06-05 01:15:00,0.0,1.93928,0.00082,401.787,0.046,0.8197,0.0021,139.997,45.000,34402.50375,1.95535,405.852,34.888,45.067,45.000,0.00,0.10,-272.72,-272.78,-8,987,-7,25.3,19.5,0.3,25.0,20.1,0.5,5.73,1.90,-2.0,28.9
2015-06-05 01:16:00,0.0,1.93844,0.00211,401.806,0.042,0.8201,0.0031,140.000,45.000,34403.92634,1.95442,405.873,34.900,45.067,45.000,0.00,0.10,-272.72,-272.78,-8,987,-7,25.3,19.5,0.3,25.0,20.1,0.5,5.73,1.93,-2.0,28.9
2015-06-05 01:17:00,0.0,1.93949,0.00192,401.774,0.057,0.8221,0.0022,140.001,45.000,34402.84525,1.95566,405.852,34.916,45.067,45.000,0.00,0.10,-272.71,-272.78,-8,987,-7,25.3,19.5,0.4,25.0,20.1,0.5,5.73,1.94,-2.0,28.9
2015-06-05 01:18:00,0.0,1.93859,0.00109,401.720,0.037,0.8238,0.0038,140.000,45.000,34403.94227,1.95476,405.806,34.916,45.067,45.000,0.00,0.10,-272.72,-272.78,-8,988,-7,25.3,19.6,0.4,25.0,20.1,0.6,5.73,1.95,-2.0,28.9
2015-06-05 01:19:00,0.0,1.94094,0.00195,401.745,0.035,0.8225,0.0025,139.998,45.000,34404.66553,1.95695,405.822,34.928,45.067,45.000,0.00,0.10,-272.72,-272.78,-8,987,-7,25.3,19.5,0.4,25.0,20.1,0.6,5.73,1.96,-2.0,28.9
2015-06-05 01:20:00,0.0,1.94229,0.00193,401.752,0.035,0.8213,0.0041,139.998,45.000,34404.34326,1.95829,405.825,34.916,45.067,45.000,0.00,0.10,-272.71,-272.78,-9,987,-7,25.3,19.5,0.3,25.0,20.1,0.5,5.73,1.95,-2.0,28.9
2015-06-05 01:21:00,0.0,1.94139,0.00134,401.696,0.055,0.8275,0.0027,140.002,45.000,34405.36414,1.95773,405.801,34.895,45.067,45.000,0.00,0.10,-272.72,-272.78,-8,987,-7,25.3,19.6,0.4,25.0,20.2,0.6,5.73,1.95,-2.0,28.9
2015-06-05 01:22:00,0.0,1.93926,0.00230,401.780,0.041,0.8195,0.0046,139.999,45.000,34403.86020,1.95532,405.843,34.877,45.067,45.000,0.00,0.10,-272.72,-272.78,-8,987,-7,25.3,19.4,0.3,25.0,20.0,0.5,5.73,1.94,-2.0,28.9
2015-06-05 01:23:00,0.0,1.94072,0.00096,401.752,0.037,0.8332,0.0039,140.001,45.000,34402.98168,1.95710,405.885,34.876,45.068,45.000,0.00,0.10,-272.72,-272.78,-8,988,-7,25.3,19.8,0.6,25.0,20.3,0.7,5.73,1.93,-2.0,29.0
2015-06-05 01:24:00,0.0,1.93360,0.00339,401.793,0.053,0.8299,0.0036,139.998,45.000,34403.29085,1.95019,405.910,34.874,45.068,45.001,0.00,0.10,-272.71,-272.77,-8,987,-7,25.3,19.7,0.5,25.0,20.3,0.7,5.73,1.91,-1.9,29.0
2015-06-05 01:25:00,0.0,1.93203,0.00137,401.694,0.042,0.8299,0.0026,140.001,45.000,34405.75315,1.94807,405.812,34.873,45.068,45.000,0.00,0.10,-272.72,-272.78,-9,987,-7,25.3,19.7,0.5,25.0,20.3,0.7,5.73,1.90,-2.0,29.0
2015-06-05 01:26:00,0.0,1.93499,0.00044,401.686,0.028,0.8219,0.0041,140.003,45.000,34404.28329,1.95104,405.762,34.876,45.068,45.000,0.00,0.10,-272.72,-272.77,-8,987,-7,25.3,19.5,0.4,25.0,20.1,0.5,5.73,1.90,-2.0,28.9
2015-06-05 01:27:00,0.0,1.93394,0.00054,401.758,0.055,0.8179,0.0045,139.998,45.000,34402.73294,1.94997,405.812,34.876,45.067,45.000,0.00,0.10,-272.71,-272.78,-8,987,-7,25.3,19.4,0.3,25.0,20.0,0.4,5.73,1.91,-2.0,28.9
2015-06-05 01:28:00,0.0,1.93438,0.00112,401.772,0.041,0.8215,0.0048,139.998,45.000,34401.40392,1.95034,405.845,34.878,45.067,45.000,0.00,0.10,-272.71,-272.78,-8,988,-7,25.3,19.4,0.3,25.0,20.0,0.5,5.73,1.93,-1.9,28.9
2015-06-05 01:29:00,0.0,1.93599,0.00083,401.757,0.061,0.8324,0.0080,140.002,45.000,34400.75012,1.95230,405.887,34.918,45.067,45.000,0.00,0.10,-272.72,-272.78,-8,987,-7,25.3,19.7,0.6,25.0,20.2,0.6,5.73,1.95,-1.9,28.9
2015-06-05 01:30:00,0.0,1.93339,0.00142,401.689,0.044,0.8327,0.0066,139.997,45.000,34402.46392,1.94978,405.820,34.926,45.067,45.000,0.00,0.10,-272.71,-272.77,-8,987,-7,25.3,19.7,0.6,25.0,20.4,0.7,5.73,1.96,-1.9,29.0
2015-06-05 01:31:00,0.0,1.93166,0.00077,401.721,0.033,0.8252,0.0030,139.999,45.000,34402.80355,1.94772,405.813,34.907,45.067,45.000,0.00,0.10,-272.72,-272.78,-8,987,-7,25.3,19.5,0.4,25.0,20.2,0.6,5.73,1.96,-1.9,28.9
2015-06-05 01:32:00,0.0,1.93741,0.00384,401.724,0.033,0.8269,0.0017,139.997,45.000,34399.65340,1.95326,405.825,34.878,45.067,45.000,0.00,0.10,-272.72,-272.79,-8,986,-7,25.3,19.6,0.5,25.0,20.2,0.6,5.73,1.95,-1.9,29.0
2015-06-05 01:33:00,0.0,1.93900,0.00218,401.793,0.035,0.8249,0.0025,139.998,45.000,34401.94109,1.95535,405.885,34.876,45.067,45.000,0.00,0.10,-272.71,-272.78,-8,987,-7,25.3,19.5,0.4,25.0,20.1,0.6,5.73,1.94,-1.9,28.9
2015-06-05 01:34:00,0.0,1.93435,0.00308,401.681,0.051,0.8291,0.0033,140.001,45.000,34404.79569,1.95035,405.792,34.878,45.067,45.000,0.00,0.10,-272.72,-272.78,-8,988,-7,25.3,19.6,0.5,25.0,20.2,0.6,5.73,1.92,-1.9,28.9
2015-06-05 01:35:00,0.0,1.94032,0.00296,401.851,0.047,0.8148,0.0043,139.994,45.000,34401.46254,1.95626,405.892,34.876,45.068,45.000,0.00,0.10,-272.72,-272.78,-8,987,-7,25.3,19.2,0.2,25.0,19.9,0.4,5.73,1.91,-1.9,29.0
2015-06-05 01:36:00,0.0,1.94192,0.00222,401.863,0.035,0.8179,0.0024,139.998,45.000,34402.47193,1.95787,405.918,34.875,45.067,45.000,0.00,0.10,-272.72,-272.78,-8,987,-7,25.3,19.4,0.3,25.0,19.9,0.4,5.73,1.89,-1.9,28.9
2015-06-05 01:37:00,0.0,1.94143,0.00444,401.854,0.052,0.8170,0.0025,139.995,45.000,34402.63773,1.95760,405.906,34.875,45.067,45.000,0.00,0.10,-272.71,-272.77,-8,987,-7,25.3,19.3,0.2,25.0,19.9,0.4,5.73,1.91,-1.9,29.0
2015-06-05 01:38:00,0.0,1.94794,0.00183,401.935,0.052,0.8105,0.0035,140.002,45.000,34405.01867,1.96352,405.954,34.875,45.067,45.000,0.00,0.10,-272.72,-272.77,-8,987,-7,25.3,19.2,0.2,25.0,19.8,0.3,5.73,1.91,-1.9,28.9
2015-06-05 01:39:00,0.0,1.94923,0.00200,401.923,0.029,0.8141,0.0022,139.999,45.000,34406.45370,1.96542,405.961,34.869,45.067,45.000,0.00,0.10,-272.72,-272.78,-8,988,-7,25.3,19.3,0.2,25.0,19.8,0.4,5.73,1.93,-1.9,28.9
2015-06-05 01:40:00,0.0,1.94521,0.00225,401.884,0.038,0.8150,0.0037,140.001,45.000,34404.79843,1.96111,405.928,34.864,45.067,45.000,0.00,0.10,-272.71,-272.77,-8,987,-7,25.4,19.2,0.2,25.0,19.9,0.4,5.73,1.95,-1.9,28.9
2015-06-05 01:41:00,0.0,1.94900,0.00084,401.989,0.048,0.8025,0.0026,139.999,45.000,34405.86865,1.96481,405.966,34.874,45.067,45.000,0.00,0.10,-272.71,-272.77,-8,987,-7,25.3,18.9,0.0,25.0,19.6,0.2,5.73,1.96,-1.9,29.0
2015-06-05 01:42:00,0.0,1.94805,0.00104,402.030,0.041,0.8104,0.0056,139.999,45.000,34405.71124,1.96405,406.049,34.875,45.067,45.000,0.00,0.10,-272.72,-272.78,-8,988,-7,25.4,19.2,0.2,25.1,19.7,0.3,5.73,1.95,-1.9,29.0
2015-06-05 01:43:00,0.0,1.94672,0.00217,401.953,0.064,0.8173,0.0045,140.001,45.000,34404.74411,1.96279,406.009,34.875,45.067,45.000,0.00,0.10,-272.71,-272.78,-8,987,-7,25.4,19.3,0.3,25.1,19.9,0.4,5.73,1.95,-1.9,29.0
2015-06-05 01:44:00,0.0,1.94594,0.00133,402.062,0.033,0.8036,0.0022,139.996,45.000,34403.23233,1.96178,406.048,34.875,45.067,45.000,0.00,0.10,-272.71,-272.78,-9,987,-7,25.4,19.0,0.0,25.1,19.6,0.2,5.73,1.93,-1.9,29.0
2015-06-05 01:45:00,0.0,1.94588,0.00110,402.017,0.071,0.8078,0.0047,140.000,45.000,34404.75693,1.96170,406.024,34.887,45.067,45.000,0.00,0.10,-272.72,-272.78,-9,988,-7,25.4,19.1,0.1,25.1,19.6,0.3,5.73,1.91,-1.9,29.1
2015-06-05 01:46:00,0.0,1.94793,0.00222,401.995,0.042,0.8066,0.0030,140.004,45.000,34406.67973,1.96367,405.996,34.911,45.067,45.000,0.00,0.10,-272.72,-272.78,-8,987,-7,25.4,19.0,0.1,25.1,19.7,0.3,5.73,1.91,-1.9,29.0
2015-06-05 01:47:00,0.0,1.94592,0.00211,401.995,0.043,0.8018,0.0019,139.997,45.000,34405.81482,1.96175,405.971,34.937,45.067,45.000,0.00,0.10,-272.71,-272.77,-8,987,-7,25.4,18.9,-0.0,25.1,19.5,0.2,5.73,1.90,-1.9,29.0